SCP
0 0 0 0 0 0 0 0 0 0 0 0 0 0 0 0 0 0 0 0 0 0 0 0 0 0 0 0 0 0 0 0 0 0 0 0 0 0 0 0 0 -0 -0 -0
0 0 0 0 0 0 0 0 0 0 0 0 0 0 0 0 0 0 0 0 0 0 0 0 0 0 0 0 0 0 0 0 0 0 0 0 0 0 -0 0 0 -0 -0 -0
0 0 0 0 0 0 0 0 0 0 0 0 0 0 0 0 0 0 0 0 0 0 0 0 0 0 0 0 0 0 0 0 0 0 0 0 0 -0 0 0 0 -0 -0 -0
0 0 0 0 0 0 0 0 0 0 0 0 0 -0 0 0 0 0 0 0 0 0 0 0 0 0 0 0 0 0 0 0 0 0 0 0 0 0 0 0 -0 -0 -0 -0
0 0 0 0 0 0 0 0 0 0 0 0 0 0 -0 0 0 0 0 0 0 0 0 0 0 0 0 0 0 0 0 0 0 0 0 0 0 0 0 0 0 0 -0 -0
0 0 0 0 0 0 0 0 0 0 0 0 0 0 -0 -0 0 0 0 0 0 0 0 0 0 0 0 0 0 0 0 0 0 0 0 0 0 0 0 0 0 0 -0 -0
0 0 0 0 0 0 0 0 0 0 0 0 0 0 -0 0 0 0 0 0 0 0 0 0 0 0 0 0 0 0 0 0 0 0 0 0 0 0 0 0 0 0 -0 -0
0 0 0 0 0 0 0 0 0 0 0 0 0 0 -0 -0 -0 0 -0 -0 0 0 0 0 0 0 0 0 0 0 0 0 0 0 0 0 0 0 0 0 0 0 -0 -0
0 0 0 0 0 0 0 0 0 0 0 0 0 0 0 0 0 0 0 0 -0 -0 0 0 0 0 0 0 0 0 0 0 0 0 0 0 0 0 0 0 0 0 -0 -0
0 0 0 0 0 0 0 0 0 0 0 0 0 0 0 0 0 0 0 -0 -0 -0 0 0 0 0 0 0 0 0 0 0 0 0 0 0 0 0 0 0 0 0 0 -0
0 0 0 0 0 0 0 0 0 0 0 0 0 0 0 0 0 0 0 -0 -0 -0 0 0 0 0 0 0 0 0 0 0 0 0 0 0 0 0 0 0 0 0 0 -0
0 0 0 0 0 0 0 0 0 0 0 0 0 0 0 -0 0 0 0 -0 -0 0 0 0 0 0 0 0 0 0 0 0 0 0 0 0 0 0 0 0 0 0 0 0
0 0 0 0 0 0 0 0 0 0 0 0 0 0 0 0 0 0 0 0 0 0 0 0 0 0 0 0 0 0 0 0 0 0 0 0 0 0 0 0 0 0 0 0
0 0 0 0 0 0 0 0 0 0 0 0 0 0 0 0 0 0 0 0 0 0 0 0 0 0 0 0 0 0 0 0 0 0 0 0 0 0 0 0 0 0 0 0
0 0 0 0 0 0 0 0 0 0 0 0 0 0 0 0 0 0 0 0 0 0 0 0 0 0 0 0 0 0 0 0 0 0 0 0 0 0 0 0 0 0 0 0
0 0 0 0 0 0 0 0 0 0 0 0 0 0 0 0 0 0 0 0 0 0 0 0 0 0 0 0 0 0 0 0 0 0 0 0 0 0 0 0 0 0 0 0
0 0 0 0 0 0 0 0 0 0 0 0 0 0 0 0 0 0 0 0 0 0 0 0 0 0 0 0 0 0 0 0 0 0 0 0 0 0 0 0 0 0 0 0
0 0 0 0 0 0 0 0 0 0 0 0 0 0 0 0 0 0 0 0 0 0 0 0 0 0 0 0 0 0 0 0 0 0 0 0 0 0 0 0 0 0 0 0
0 0 0 0 0 0 0 0 0 0 0 0 0 0 0 0 0 0 0 0 0 0 0 0 0 0 0 0 0 0 0 0 0 0 0 0 0 0 0 0 0 0 0 0
0 0 0 0 0 0 0 0 0 0 0 0 0 0 0 0 0 0 0 0 0 0 0 0 0 0 0 0 0 0 0 0 0 0 0 0 0 0 0 0 0 0 0 0
0 0 0 0 0 0 0 0 0 0 0 0 0 0 0 0 0 0 0 0 0 0 0 0 0 0 0 0 0 0 0 0 0 0 0 0 0 0 0 0 0 0 0 0
0 0 0 0 0 0 0 0 0 0 0 0 0 0 0 0 0 0 0 0 0 0 0 0 0 0 0 0 0 0 0 0 0 0 0 0 0 0 0 0 0 0 0 0
0 0 0 0 0 0 0 0 0 0 0 0 0 0 0 0 0 0 0 0 0 0 0 0 0 0 0 0 0 0 0 0 0 0 0 0 0 0 0 0 0 0 0 0
0 0 0 0 0 0 0 0 0 0 0 0 0 0 0 0 0 0 0 0 0 0 0 -0 -0 -0 0 0 0 0 0 0 0 0 0 0 0 0 0 0 0 0 0 0
0 0 0 0 0 0 0 0 0 0 0 0 0 0 0 0 -0 -0 -0 0 0 0 0 -0 -0 0 0 0 0 0 0 0 0 0 0 0 0 0 0 0 0 0 0 0
0 0 0 0 0 0 0 0 0 0 0 0 0 0 0 -0 -0 -0 -0 -0 -0 0 0 0 0 0 0 0 0 0 0 0 0 0 0 0 0 0 0 0 0 0 0 0
Wind_Speed_500mb
5 7 12 18 10 10 14 8 5 5 2 6 11 18 32 26 37 50 60 64 68 62 43 38 31 22 15 10 8 9 13 14 11 9 8 12 17 23 26 32 34 37 41 44
11 9 9 12 10 9 8 8 7 3 3 7 9 25 24 24 31 58 70 72 70 64 56 49 40 30 21 16 13 14 17 16 13 6 4 9 12 19 25 30 32 37 40 43
12 1 9 9 7 12 7 9 8 6 4 2 10 16 11 11 28 43 35 43 49 65 65 57 49 37 27 21 18 18 20 20 15 7 2 5 10 16 22 25 29 36 39 41
6 1 8 6 7 7 8 8 10 13 7 6 6 9 13 12 18 12 17 19 38 50 60 63 55 45 35 27 24 24 24 20 14 8 2 4 9 10 17 24 32 32 34 39
11 6 6 6 4 7 6 6 10 7 9 6 6 4 15 9 13 9 18 35 22 37 50 70 63 49 38 32 31 31 28 21 15 10 5 5 8 11 16 25 25 27 31 37
6 5 4 4 4 4 15 12 13 9 5 3 3 6 12 4 1 12 14 27 19 24 39 56 62 52 44 38 36 35 30 23 17 12 7 7 9 12 18 20 18 23 29 36
5 3 2 3 10 4 3 10 3 7 4 7 3 6 19 8 12 5 20 33 15 15 32 53 68 60 50 46 44 42 34 28 21 14 9 9 9 11 14 15 16 22 28 35
12 5 7 4 2 10 8 7 10 13 7 6 6 10 10 7 9 7 11 12 4 7 23 45 64 61 54 49 47 45 40 32 24 17 14 12 9 9 9 11 14 21 27 33
9 3 7 6 4 3 8 7 4 13 7 6 5 12 9 5 11 16 15 8 5 9 19 37 60 62 56 50 48 46 41 34 28 22 18 15 14 12 9 9 13 20 25 31
11 8 5 6 3 5 1 6 7 4 6 6 6 10 8 5 10 13 11 5 1 7 19 35 58 63 55 49 47 48 43 36 31 26 22 20 18 15 12 11 12 18 21 27
10 8 2 2 7 10 3 2 7 5 5 8 6 11 11 10 1 4 8 5 9 12 19 34 53 62 58 53 52 51 47 42 36 30 25 21 20 17 14 13 13 18 20 24
5 9 8 8 1 1 2 6 10 7 9 3 4 11 8 9 2 2 11 15 31 24 24 29 46 60 63 60 58 56 51 44 38 32 28 25 23 22 18 15 15 17 19 23
10 0 6 5 2 5 8 8 6 7 5 11 11 9 2 5 7 15 23 46 50 37 30 31 43 61 66 66 63 61 57 51 46 40 34 30 28 26 22 19 17 17 19 22
11 6 6 10 5 8 8 9 9 7 6 8 9 9 10 12 11 23 47 50 49 41 32 36 42 55 67 69 68 66 63 58 53 48 42 36 32 30 26 23 22 20 21 22
6 8 5 1 5 1 4 6 13 14 10 10 6 14 8 11 11 26 33 41 48 42 31 38 44 51 64 73 75 71 69 66 59 53 48 42 37 35 32 27 26 24 23 24
7 6 5 5 4 6 8 12 13 14 10 14 19 29 14 35 5 18 31 36 52 47 36 29 42 51 57 69 78 76 75 72 65 60 54 49 46 42 39 34 31 29 27 26
10 10 6 7 7 7 15 17 27 13 11 13 18 20 11 3 13 26 28 36 40 46 43 30 30 44 54 60 71 80 78 76 72 64 59 55 51 47 44 39 37 34 32 29
8 10 5 5 5 6 5 4 8 19 8 21 10 13 5 14 29 14 29 37 33 37 45 41 26 29 41 51 61 72 79 81 78 70 66 62 58 52 49 46 42 40 37 33
6 7 5 10 8 15 18 12 16 15 2 10 26 11 21 8 6 20 38 41 36 33 33 35 29 17 24 38 48 64 78 85 81 77 74 69 63 56 54 52 47 44 42 37
13 2 6 7 10 17 10 5 14 8 4 10 16 11 9 11 9 6 37 51 52 40 33 28 26 21 20 28 39 52 67 81 84 79 79 72 64 63 59 55 53 48 45 40
17 10 14 9 7 15 16 4 18 11 12 15 30 24 23 9 10 18 33 45 54 55 48 34 28 25 19 20 31 44 57 69 70 79 84 78 71 69 62 59 57 53 51 46
17 12 10 5 4 22 11 8 10 15 27 32 31 28 26 22 24 32 38 43 48 55 58 52 35 27 24 21 25 37 49 54 64 67 82 79 75 74 68 66 62 60 56 51
6 12 9 15 10 6 6 32 40 39 45 34 30 22 19 22 27 33 36 40 44 48 53 54 50 32 25 23 24 33 36 49 61 62 79 84 82 79 74 73 70 68 63 59
7 7 6 6 3 19 47 43 40 36 30 22 24 23 24 25 28 32 37 42 45 44 48 51 48 41 27 23 22 24 34 43 48 62 71 82 87 85 79 76 75 73 71 67
5 13 9 6 13 33 21 25 22 19 19 19 26 27 25 24 26 31 33 36 41 46 46 47 47 44 36 26 23 21 29 37 43 52 60 80 87 86 86 82 81 80 74 67
9 9 7 7 14 6 23 9 8 16 16 25 35 40 37 30 33 37 39 38 37 41 45 47 48 47 43 38 29 25 25 31 41 52 58 66 88 95 90 88 86 83 76 69
Wind_Direction_500mb
83 108 191 201 174 139 132 156 184 169 151 177 238 270 279 248 241 242 241 234 231 228 221 218 217 221 217 213 205 184 173 164 139 117 45 31 34 50 56 56 55 52 49 47
36 225 202 113 142 120 133 140 193 119 108 174 336 281 262 243 239 239 240 238 235 229 217 213 213 217 213 212 206 193 184 180 165 144 58 33 47 64 63 59 56 54 50 48
155 253 135 116 149 140 172 170 172 164 125 116 325 293 316 275 258 263 265 263 255 239 220 211 211 212 213 208 202 190 182 178 171 166 105 52 61 67 68 67 61 55 50 47
120 75 155 129 179 138 190 189 130 127 103 240 11 281 301 279 289 7 342 301 262 240 223 215 210 209 208 204 198 186 181 180 182 173 153 98 88 90 83 71 60 55 53 51
207 135 149 159 177 173 186 102 105 96 102 75 338 53 269 360 314 5 353 339 295 247 229 212 208 207 203 201 196 190 189 189 191 182 173 124 113 112 87 70 61 56 56 55
98 90 71 101 62 35 151 79 53 53 93 26 286 132 283 237 324 321 324 333 293 239 223 214 205 199 197 196 196 195 193 195 200 195 172 150 146 126 87 74 65 63 59 59
30 20 14 115 90 32 133 105 349 355 26 212 169 76 249 328 301 282 313 325 318 232 213 207 202 196 196 198 196 196 195 200 201 195 172 171 160 123 98 85 74 67 65 62
144 239 178 354 155 176 176 175 163 198 186 175 123 226 254 274 336 5 359 7 38 201 215 212 203 202 202 199 200 197 199 199 200 192 181 173 160 119 92 85 79 74 68 65
131 46 328 28 346 52 185 187 133 101 22 78 241 279 314 319 40 31 27 39 114 174 200 208 206 207 207 204 202 201 200 199 199 196 191 180 163 148 125 98 77 71 70 68
177 91 8 332 335 28 195 154 79 1 151 236 289 285 232 262 338 2 8 28 221 207 212 206 205 209 210 209 206 204 203 205 203 200 196 188 174 164 150 126 105 89 77 72
146 107 322 7 207 187 147 183 54 108 141 159 149 258 206 202 15 335 332 39 320 266 240 221 208 207 211 210 209 207 205 206 206 204 200 194 184 175 167 147 130 109 97 88
210 115 145 196 236 219 261 224 176 138 196 94 110 276 182 217 110 227 300 310 335 306 272 240 219 212 212 211 210 210 210 210 209 210 208 201 193 186 179 164 145 126 112 102
177 158 90 24 15 6 215 202 162 117 92 188 143 253 213 219 233 284 314 341 334 316 276 249 226 219 217 215 213 212 211 210 210 211 209 205 200 195 186 173 161 144 130 119
125 97 152 185 129 113 186 191 198 147 128 182 215 264 289 296 324 338 342 340 335 321 282 258 238 226 221 219 218 216 214 213 212 210 210 207 203 199 193 185 172 160 147 133
90 120 106 113 98 80 239 173 174 197 195 191 221 225 251 258 303 321 340 356 352 344 296 262 249 235 226 222 220 219 218 215 213 212 211 208 205 202 198 193 182 172 162 148
1 126 92 342 3 206 254 226 195 215 235 254 262 281 193 284 299 340 345 359 3 356 340 286 259 246 236 228 225 221 219 218 215 214 213 210 207 203 201 197 191 182 174 163
151 131 112 257 356 345 289 201 195 191 193 172 197 227 219 358 332 333 330 354 356 3 358 333 281 260 251 239 231 226 223 219 217 215 214 214 212 207 202 200 196 190 183 175
149 111 102 166 38 256 274 119 186 203 198 215 250 241 232 298 306 4 8 350 352 356 359 353 322 277 259 250 239 232 226 222 219 217 217 217 215 209 206 204 198 196 190 182
159 122 132 157 194 308 290 193 163 168 247 225 230 252 282 299 109 49 22 20 7 359 359 356 346 311 273 259 247 234 227 223 220 220 220 219 216 214 211 209 203 200 196 189
150 258 130 152 158 213 253 260 182 129 343 348 149 143 115 111 88 269 21 26 25 17 5 2 0 340 295 269 251 238 231 225 221 226 225 222 222 218 215 212 207 204 199 197
187 197 206 186 205 281 247 228 164 113 191 88 118 88 71 92 79 5 22 28 25 22 16 10 10 356 341 293 263 248 236 229 223 228 227 223 226 221 217 215 210 207 203 200
177 179 197 143 126 260 177 119 194 141 109 104 94 84 71 65 38 22 18 15 15 15 14 15 7 357 340 313 278 256 247 232 225 229 229 226 229 223 218 216 212 209 207 205
208 183 178 182 211 51 141 122 120 114 108 99 86 64 47 29 16 7 1 1 360 4 3 7 8 359 348 327 298 271 259 244 236 228 225 224 230 226 222 218 213 213 209 208
256 167 167 109 181 140 121 116 107 101 97 76 47 37 19 5 358 353 349 346 344 344 345 349 354 357 342 322 315 291 265 251 244 235 232 227 225 227 224 220 218 217 215 212
213 146 168 260 83 132 139 116 95 76 47 29 9 4 354 343 340 338 338 337 335 334 331 329 334 337 338 313 295 286 271 255 245 237 236 229 225 227 227 225 223 220 221 222
188 190 177 239 151 143 180 80 46 357 350 341 344 336 330 320 320 321 320 321 320 322 324 318 317 321 323 315 294 273 277 261 248 240 236 232 223 226 229 227 225 223 224 224
Wind_Speed_850mb
5 7 12 18 10 10 14 8 5 5 2 6 11 18 32 26 37 50 60 64 68 62 43 38 31 22 15 10 8 9 13 14 11 9 8 12 17 23 26 32 34 37 41 44
11 9 9 12 10 9 8 8 7 3 3 7 9 25 24 24 31 58 70 72 70 64 56 49 40 30 21 16 13 14 17 16 13 6 4 9 12 19 25 30 32 37 40 43
12 1 9 9 7 12 7 9 8 6 4 2 10 16 11 11 28 43 35 43 49 65 65 57 49 37 27 21 18 18 20 20 15 7 2 5 10 16 22 25 29 36 39 41
6 1 8 6 7 7 8 8 10 13 7 6 6 9 13 12 18 12 17 19 38 50 60 63 55 45 35 27 24 24 24 20 14 8 2 4 9 10 17 24 32 32 34 39
11 6 6 6 4 7 6 6 10 7 9 6 6 4 15 9 13 9 18 35 22 37 50 70 63 49 38 32 31 31 28 21 15 10 5 5 8 11 16 25 25 27 31 37
6 5 4 4 4 4 15 12 13 9 5 3 3 6 12 4 1 12 14 27 19 24 39 56 62 52 44 38 36 35 30 23 17 12 7 7 9 12 18 20 18 23 29 36
5 3 2 3 10 4 3 10 3 7 4 7 3 6 19 8 12 5 20 33 15 15 32 53 68 60 50 46 44 42 34 28 21 14 9 9 9 11 14 15 16 22 28 35
12 5 7 4 2 10 8 7 10 13 7 6 6 10 10 7 9 7 11 12 4 7 23 45 64 61 54 49 47 45 40 32 24 17 14 12 9 9 9 11 14 21 27 33
9 3 7 6 4 3 8 7 4 13 7 6 5 12 9 5 11 16 15 8 5 9 19 37 60 62 56 50 48 46 41 34 28 22 18 15 14 12 9 9 13 20 25 31
11 8 5 6 3 5 1 6 7 4 6 6 6 10 8 5 10 13 11 5 1 7 19 35 58 63 55 49 47 48 43 36 31 26 22 20 18 15 12 11 12 18 21 27
10 8 2 2 7 10 3 2 7 5 5 8 6 11 11 10 1 4 8 5 9 12 19 34 53 62 58 53 52 51 47 42 36 30 25 21 20 17 14 13 13 18 20 24
5 9 8 8 1 1 2 6 10 7 9 3 4 11 8 9 2 2 11 15 31 24 24 29 46 60 63 60 58 56 51 44 38 32 28 25 23 22 18 15 15 17 19 23
10 0 6 5 2 5 8 8 6 7 5 11 11 9 2 5 7 15 23 46 50 37 30 31 43 61 66 66 63 61 57 51 46 40 34 30 28 26 22 19 17 17 19 22
11 6 6 10 5 8 8 9 9 7 6 8 9 9 10 12 11 23 47 50 49 41 32 36 42 55 67 69 68 66 63 58 53 48 42 36 32 30 26 23 22 20 21 22
6 8 5 1 5 1 4 6 13 14 10 10 6 14 8 11 11 26 33 41 48 42 31 38 44 51 64 73 75 71 69 66 59 53 48 42 37 35 32 27 26 24 23 24
7 6 5 5 4 6 8 12 13 14 10 14 19 29 14 35 5 18 31 36 52 47 36 29 42 51 57 69 78 76 75 72 65 60 54 49 46 42 39 34 31 29 27 26
10 10 6 7 7 7 15 17 27 13 11 13 18 20 11 3 13 26 28 36 40 46 43 30 30 44 54 60 71 80 78 76 72 64 59 55 51 47 44 39 37 34 32 29
8 10 5 5 5 6 5 4 8 19 8 21 10 13 5 14 29 14 29 37 33 37 45 41 26 29 41 51 61 72 79 81 78 70 66 62 58 52 49 46 42 40 37 33
6 7 5 10 8 15 18 12 16 15 2 10 26 11 21 8 6 20 38 41 36 33 33 35 29 17 24 38 48 64 78 85 81 77 74 69 63 56 54 52 47 44 42 37
13 2 6 7 10 17 10 5 14 8 4 10 16 11 9 11 9 6 37 51 52 40 33 28 26 21 20 28 39 52 67 81 84 79 79 72 64 63 59 55 53 48 45 40
17 10 14 9 7 15 16 4 18 11 12 15 30 24 23 9 10 18 33 45 54 55 48 34 28 25 19 20 31 44 57 69 70 79 84 78 71 69 62 59 57 53 51 46
17 12 10 5 4 22 11 8 10 15 27 32 31 28 26 22 24 32 38 43 48 55 58 52 35 27 24 21 25 37 49 54 64 67 82 79 75 74 68 66 62 60 56 51
6 12 9 15 10 6 6 32 40 39 45 34 30 22 19 22 27 33 36 40 44 48 53 54 50 32 25 23 24 33 36 49 61 62 79 84 82 79 74 73 70 68 63 59
7 7 6 6 3 19 47 43 40 36 30 22 24 23 24 25 28 32 37 42 45 44 48 51 48 41 27 23 22 24 34 43 48 62 71 82 87 85 79 76 75 73 71 67
5 13 9 6 13 33 21 25 22 19 19 19 26 27 25 24 26 31 33 36 41 46 46 47 47 44 36 26 23 21 29 37 43 52 60 80 87 86 86 82 81 80 74 67
9 9 7 7 14 6 23 9 8 16 16 25 35 40 37 30 33 37 39 38 37 41 45 47 48 47 43 38 29 25 25 31 41 52 58 66 88 95 90 88 86 83 76 69
Wind_Direction_850mb
83 108 191 201 174 139 132 156 184 169 151 177 238 270 279 248 241 242 241 234 231 228 221 218 217 221 217 213 205 184 173 164 139 117 45 31 34 50 56 56 55 52 49 47
36 225 202 113 142 120 133 140 193 119 108 174 336 281 262 243 239 239 240 238 235 229 217 213 213 217 213 212 206 193 184 180 165 144 58 33 47 64 63 59 56 54 50 48
155 253 135 116 149 140 172 170 172 164 125 116 325 293 316 275 258 263 265 263 255 239 220 211 211 212 213 208 202 190 182 178 171 166 105 52 61 67 68 67 61 55 50 47
120 75 155 129 179 138 190 189 130 127 103 240 11 281 301 279 289 7 342 301 262 240 223 215 210 209 208 204 198 186 181 180 182 173 153 98 88 90 83 71 60 55 53 51
207 135 149 159 177 173 186 102 105 96 102 75 338 53 269 360 314 5 353 339 295 247 229 212 208 207 203 201 196 190 189 189 191 182 173 124 113 112 87 70 61 56 56 55
98 90 71 101 62 35 151 79 53 53 93 26 286 132 283 237 324 321 324 333 293 239 223 214 205 199 197 196 196 195 193 195 200 195 172 150 146 126 87 74 65 63 59 59
30 20 14 115 90 32 133 105 349 355 26 212 169 76 249 328 301 282 313 325 318 232 213 207 202 196 196 198 196 196 195 200 201 195 172 171 160 123 98 85 74 67 65 62
144 239 178 354 155 176 176 175 163 198 186 175 123 226 254 274 336 5 359 7 38 201 215 212 203 202 202 199 200 197 199 199 200 192 181 173 160 119 92 85 79 74 68 65
131 46 328 28 346 52 185 187 133 101 22 78 241 279 314 319 40 31 27 39 114 174 200 208 206 207 207 204 202 201 200 199 199 196 191 180 163 148 125 98 77 71 70 68
177 91 8 332 335 28 195 154 79 1 151 236 289 285 232 262 338 2 8 28 221 207 212 206 205 209 210 209 206 204 203 205 203 200 196 188 174 164 150 126 105 89 77 72
146 107 322 7 207 187 147 183 54 108 141 159 149 258 206 202 15 335 332 39 320 266 240 221 208 207 211 210 209 207 205 206 206 204 200 194 184 175 167 147 130 109 97 88
210 115 145 196 236 219 261 224 176 138 196 94 110 276 182 217 110 227 300 310 335 306 272 240 219 212 212 211 210 210 210 210 209 210 208 201 193 186 179 164 145 126 112 102
177 158 90 24 15 6 215 202 162 117 92 188 143 253 213 219 233 284 314 341 334 316 276 249 226 219 217 215 213 212 211 210 210 211 209 205 200 195 186 173 161 144 130 119
125 97 152 185 129 113 186 191 198 147 128 182 215 264 289 296 324 338 342 340 335 321 282 258 238 226 221 219 218 216 214 213 212 210 210 207 203 199 193 185 172 160 147 133
90 120 106 113 98 80 239 173 174 197 195 191 221 225 251 258 303 321 340 356 352 344 296 262 249 235 226 222 220 219 218 215 213 212 211 208 205 202 198 193 182 172 162 148
1 126 92 342 3 206 254 226 195 215 235 254 262 281 193 284 299 340 345 359 3 356 340 286 259 246 236 228 225 221 219 218 215 214 213 210 207 203 201 197 191 182 174 163
151 131 112 257 356 345 289 201 195 191 193 172 197 227 219 358 332 333 330 354 356 3 358 333 281 260 251 239 231 226 223 219 217 215 214 214 212 207 202 200 196 190 183 175
149 111 102 166 38 256 274 119 186 203 198 215 250 241 232 298 306 4 8 350 352 356 359 353 322 277 259 250 239 232 226 222 219 217 217 217 215 209 206 204 198 196 190 182
159 122 132 157 194 308 290 193 163 168 247 225 230 252 282 299 109 49 22 20 7 359 359 356 346 311 273 259 247 234 227 223 220 220 220 219 216 214 211 209 203 200 196 189
150 258 130 152 158 213 253 260 182 129 343 348 149 143 115 111 88 269 21 26 25 17 5 2 0 340 295 269 251 238 231 225 221 226 225 222 222 218 215 212 207 204 199 197
187 197 206 186 205 281 247 228 164 113 191 88 118 88 71 92 79 5 22 28 25 22 16 10 10 356 341 293 263 248 236 229 223 228 227 223 226 221 217 215 210 207 203 200
177 179 197 143 126 260 177 119 194 141 109 104 94 84 71 65 38 22 18 15 15 15 14 15 7 357 340 313 278 256 247 232 225 229 229 226 229 223 218 216 212 209 207 205
208 183 178 182 211 51 141 122 120 114 108 99 86 64 47 29 16 7 1 1 360 4 3 7 8 359 348 327 298 271 259 244 236 228 225 224 230 226 222 218 213 213 209 208
256 167 167 109 181 140 121 116 107 101 97 76 47 37 19 5 358 353 349 346 344 344 345 349 354 357 342 322 315 291 265 251 244 235 232 227 225 227 224 220 218 217 215 212
213 146 168 260 83 132 139 116 95 76 47 29 9 4 354 343 340 338 338 337 335 334 331 329 334 337 338 313 295 286 271 255 245 237 236 229 225 227 227 225 223 220 221 222
188 190 177 239 151 143 180 80 46 357 350 341 344 336 330 320 320 321 320 321 320 322 324 318 317 321 323 315 294 273 277 261 248 240 236 232 223 226 229 227 225 223 224 224